Date String (YYYY-MM-DD hh:mm:ss) UTC,Instrument flags,Ambient pressure (hPa),Sample flow (lpm),Bypass flow (lpm),Sample temperature (°C),Ambient temperature (°C),ASC tube jacket temperature (°C),LED temperature (°C),Box temperature (°C),Sample RH (%),Span deviation,Mass concentration (μg/m³),Mass concentration (μg/m³),Mass concentration (μg/m³)
DateTimeUTC,F1_M11,P_M11,Q1_M11,Q2_M11,T1_M11,T2_M11,T3_M11,T4_M11,T5_M11,U1_M11,ZSPAN_M11,X0_M11,X2_M11,X1_M11
2022-12-22 16:00:00,,0829.8,5.05,0.00,21.6,21.4,00.0,30.3,23.2,02.7,0001.4,0010.84,0005.51,0004.86
2022-12-22 16:01:00,,0829.9,4.96,0.00,21.5,20.7,00.0,30.4,23.0,02.7,0001.2,0010.93,0005.59,0004.93
2022-12-22 16:02:00,,0829.8,5.03,0.00,21.4,20.2,00.0,30.3,22.9,02.7,0001.6,0010.91,0005.71,0005.02
2022-12-22 16:03:00,,0829.8,4.97,0.00,21.5,21.1,00.0,30.3,23.1,02.7,0001.5,0011.08,0005.84,0005.14
2022-12-22 16:04:00,,0829.8,5.03,0.00,21.6,22.1,00.0,30.3,23.4,02.7,0001.2,0011.18,0005.87,0005.17
2022-12-22 16:05:00,,0829.8,4.95,0.00,21.7,22.4,00.0,30.3,23.5,02.7,0001.0,0010.89,0005.87,0005.18
2022-12-22 16:06:00,,0829.8,5.06,0.00,21.7,21.5,00.0,30.4,23.3,02.7,0001.0,0010.83,0005.86,0005.17
2022-12-22 16:07:00,,0829.8,4.95,0.00,21.6,20.6,00.0,30.4,23.1,02.7,0001.3,0010.36,0005.86,0005.14
2022-12-22 16:08:00,,0829.9,5.04,0.00,21.5,20.0,00.0,30.4,22.9,02.7,0001.7,0010.52,0005.86,0005.12
2022-12-22 16:09:00,,0829.9,5.02,0.00,21.5,20.5,00.0,30.4,23.0,02.7,0001.8,0010.56,0005.86,0005.12
2022-12-22 16:10:00,,0829.9,4.96,0.00,21.6,21.6,00.0,30.3,23.3,02.7,0002.0,0010.53,0005.85,0005.12
2022-12-22 16:11:00,,0829.9,5.03,0.00,21.7,22.3,00.0,30.4,23.5,02.7,0002.6,0010.59,0005.88,0005.12
2022-12-22 16:12:00,,0829.9,4.97,0.00,21.8,21.8,00.0,30.4,23.5,02.7,0003.1,0010.73,0005.95,0005.14
2022-12-22 16:13:00,,0829.9,5.04,0.00,21.7,21.0,00.0,30.5,23.3,02.7,0002.9,0010.63,0005.92,0005.13
2022-12-22 16:14:00,,0829.9,4.95,0.00,21.6,20.3,00.0,30.5,23.1,02.7,0002.6,0010.63,0005.91,0005.12
2022-12-22 16:15:00,,0829.9,5.05,0.00,21.6,19.9,00.0,30.4,22.9,02.7,0002.4,0010.34,0005.93,0005.13
2022-12-22 16:16:00,,0829.8,5.00,0.00,21.6,21.1,00.0,30.4,23.2,02.7,0002.5,0010.28,0005.94,0005.14
2022-12-22 16:17:00,,0829.8,4.96,0.00,21.8,22.2,00.0,30.4,23.5,02.7,0002.5,0010.34,0006.00,0005.17
2022-12-22 16:18:00,,0829.8,5.04,0.00,21.8,22.3,00.0,30.4,23.6,02.7,0002.6,0010.64,0006.05,0005.21
2022-12-22 16:19:00,,0829.9,4.95,0.00,21.8,21.5,00.0,30.5,23.5,02.7,0002.5,0010.53,0006.05,0005.25
2022-12-22 16:20:00,,0829.9,5.03,0.00,21.8,20.8,00.0,30.5,23.2,02.8,0002.4,0010.77,0006.10,0005.29
2022-12-22 16:21:00,,0830.0,5.04,0.00,21.7,20.2,00.0,30.5,23.1,02.8,0002.7,0011.26,0006.16,0005.34
2022-12-22 16:22:00,,0830.0,4.96,0.00,21.6,20.1,00.0,30.5,23.0,02.8,0003.0,0011.35,0006.19,0005.37
2022-12-22 16:23:00,,0830.1,5.01,0.00,21.7,21.3,00.0,30.4,23.3,02.8,0003.0,0011.71,0006.22,0005.42
2022-12-22 16:24:00,,0830.0,5.02,0.00,21.8,22.0,00.0,30.5,23.5,02.8,0002.9,0011.68,0006.22,0005.45
2022-12-22 16:25:00,,0830.0,4.96,0.00,21.8,21.3,00.0,30.5,23.4,02.8,0002.8,0011.74,0006.24,0005.47
2022-12-22 16:26:00,,0830.1,5.03,0.00,21.7,20.6,00.0,30.5,23.2,02.8,0002.8,0011.72,0006.24,0005.47
2022-12-22 16:27:00,,0830.1,5.00,0.00,21.6,20.1,00.0,30.5,23.0,02.8,0002.8,0011.71,0006.22,0005.46
2022-12-22 16:28:00,,0830.1,4.97,0.00,21.6,20.2,00.0,30.5,23.0,02.9,0002.9,0011.61,0006.17,0005.44
2022-12-22 16:29:00,,0830.1,5.03,0.00,21.7,21.4,00.0,30.4,23.3,02.9,0002.9,0011.28,0006.11,0005.41
2022-12-22 16:30:00,,0830.1,4.97,0.00,21.8,22.3,00.0,30.4,23.5,02.9,0002.6,0011.30,0006.13,0005.40
2022-12-22 16:31:00,,0830.1,5.04,0.00,21.8,21.8,00.0,30.5,23.5,02.8,0002.3,0011.12,0006.12,0005.39
2022-12-22 16:32:00,,0830.1,5.03,0.00,21.7,20.8,00.0,30.5,23.1,02.8,0002.0,0010.57,0006.11,0005.37
2022-12-22 16:33:00,,0830.1,4.96,0.00,21.6,19.8,00.0,30.5,22.8,02.8,0001.9,0010.51,0006.10,0005.35
2022-12-22 16:34:00,,0830.1,5.01,0.00,21.4,19.3,00.0,30.5,22.6,02.8,0001.6,0010.52,0006.08,0005.29
2022-12-22 16:35:00,,0830.2,5.01,0.00,21.4,20.3,00.0,30.4,22.8,02.8,0001.5,0010.37,0005.98,0005.23
2022-12-22 16:36:00,,0830.1,4.98,0.00,21.5,21.3,00.0,30.4,23.1,02.7,0001.4,0010.27,0005.92,0005.17
2022-12-22 16:37:00,,0830.1,5.01,0.00,21.7,22.1,00.0,30.3,23.3,02.7,0001.5,0010.25,0005.89,0005.14
2022-12-22 16:38:00,,0830.1,5.00,0.00,21.6,21.4,00.0,30.4,23.2,02.7,0001.8,0010.16,0005.84,0005.09
2022-12-22 16:39:00,,0830.1,4.97,0.00,21.5,20.1,00.0,30.4,22.8,02.7,0001.7,0010.17,0005.84,0005.07
2022-12-22 16:40:00,,0830.1,5.02,0.00,21.3,19.1,00.0,30.4,22.4,02.7,0001.7,0010.14,0005.80,0005.04
2022-12-22 16:41:00,,0830.1,5.02,0.00,21.2,19.5,00.0,30.3,22.4,02.6,0001.7,0010.01,0005.73,0005.00
2022-12-22 16:42:00,,0830.1,4.99,0.00,21.3,20.6,00.0,30.2,22.7,02.6,0001.8,0009.99,0005.70,0004.96
2022-12-22 16:43:00,,0830.1,5.00,0.00,21.4,21.4,00.0,30.2,23.0,02.6,0001.8,0009.99,0005.68,0004.94
2022-12-22 16:44:00,,0830.1,4.98,0.00,21.5,22.0,00.0,30.2,23.2,02.6,0001.5,0010.01,0005.66,0004.91
2022-12-22 16:45:00,,0830.1,5.02,0.00,21.5,21.3,00.0,30.3,23.0,02.6,0001.5,0010.00,0005.67,0004.92
2022-12-22 16:46:00,,0830.1,5.03,0.00,21.4,20.2,00.0,30.3,22.6,02.6,0001.3,0010.63,0005.72,0004.94
2022-12-22 16:47:00,,0830.1,4.96,0.00,21.2,19.3,00.0,30.3,22.3,02.6,0001.5,0010.68,0005.75,0004.97
2022-12-22 16:48:00,,0830.0,5.00,0.00,21.1,19.8,00.0,30.2,22.4,02.6,0002.3,0010.70,0005.76,0004.99
2022-12-22 16:49:00,,0830.1,5.03,0.00,21.3,20.9,00.0,30.2,22.8,02.6,0002.3,0010.92,0005.80,0005.00
2022-12-22 16:50:00,,0830.1,4.97,0.00,21.4,21.7,00.0,30.1,23.1,02.5,0002.8,0011.03,0005.78,0005.00
2022-12-22 16:51:00,,0830.1,5.02,0.00,21.5,22.1,00.0,30.2,23.2,02.5,0002.8,0011.15,0005.74,0004.96
2022-12-22 16:52:00,,0830.2,4.98,0.00,21.5,21.0,00.0,30.2,22.9,02.5,0002.8,0011.43,0005.77,0004.94
2022-12-22 16:53:00,,0830.2,5.03,0.00,21.3,19.9,00.0,30.2,22.4,02.5,0003.0,0011.39,0005.68,0004.88
2022-12-22 16:54:00,,0830.2,4.99,0.00,21.1,18.9,00.0,30.2,22.1,02.5,0003.0,0011.35,0005.59,0004.83
2022-12-22 16:55:00,,0830.2,4.97,0.00,21.0,19.5,00.0,30.1,22.2,02.5,0003.1,0011.98,0005.54,0004.78
2022-12-22 16:56:00,,0830.3,5.03,0.00,21.1,20.7,00.0,30.1,22.6,02.4,0003.3,0011.82,0005.46,0004.72
2022-12-22 16:57:00,,0830.2,4.96,0.00,21.3,21.4,00.0,30.1,22.9,02.4,0003.5,0011.01,0005.37,0004.65
2022-12-22 16:58:00,,0830.3,5.04,0.00,21.4,22.0,00.0,30.1,23.1,02.4,0003.5,0010.91,0005.31,0004.58
2022-12-22 16:59:00,,0830.2,4.97,0.00,21.4,21.8,00.0,30.1,23.1,02.3,0003.3,0010.83,0005.24,0004.50
